Theta_e
312 316 318 319 320 319 316 314 314 316 316 316 316 317 318 317 317 316 318 317 312 314 319 317 316 318 318 317 314 312 313 312 311 311 310 308 307 306 305 304 304 304 304 304 305 306 307 307 308 308 308 308 308 308 308 309 309 310 310 310 310 311 311 311 311 312 313 316 319 320 321 321 322 322 322 322 322 322 322 323 323 323 323 323 324 324
313 317 319 320 319 317 316 314 313 313 313 313 315 316 317 317 317 317 317 317 312 313 320 317 315 318 317 316 313 310 312 311 308 308 308 306 305 304 304 303 303 303 303 305 306 306 307 307 308 308 308 308 308 308 308 308 308 308 308 308 308 309 309 309 310 310 311 313 315 316 318 319 320 321 321 321 321 321 321 321 321 322 322 322 322 322
314 317 318 317 314 313 314 314 313 314 314 315 316 316 318 319 318 319 318 317 315 315 321 320 316 317 317 315 312 309 310 308 306 307 306 305 304 303 303 303 303 304 305 306 307 307 308 308 308 309 309 309 308 308 308 308 308 308 308 307 307 308 308 308 308 309 309 310 311 313 314 316 317 318 319 319 320 320 321 321 321 321 321 321 321 321
317 320 316 312 311 313 315 315 315 315 315 318 318 317 320 319 318 321 320 319 318 315 318 319 316 318 318 315 312 308 307 306 305 306 305 304 303 302 302 303 304 304 305 306 307 308 308 309 309 309 309 309 309 309 308 308 308 308 308 308 307 307 307 307 307 307 308 308 310 311 312 313 313 314 315 315 316 317 318 318 319 319 319 319 319 319
320 319 314 312 314 315 316 317 316 315 318 322 322 319 319 319 318 320 319 319 320 318 317 316 319 326 323 316 314 310 308 306 305 304 303 303 302 302 302 302 303 304 304 306 307 307 308 308 309 308 308 309 309 309 308 308 308 307 307 307 307 307 307 307 307 307 307 307 308 309 310 311 311 311 311 311 312 312 313 314 314 315 316 317 317 317
318 315 313 316 318 317 318 320 320 319 320 323 325 322 318 320 320 318 318 319 321 322 318 315 321 330 329 323 316 312 310 308 305 304 303 302 301 301 301 301 302 303 304 305 306 307 307 307 308 308 308 308 308 308 307 307 306 306 306 306 307 307 307 307 307 307 307 307 307 306 307 307 308 308 308 308 308 308 308 309 309 310 311 312 313 313
318 314 315 319 320 320 319 321 323 321 320 320 322 322 320 319 319 318 318 318 322 322 317 315 320 324 327 327 318 313 313 309 305 304 302 302 301 300 300 301 301 303 303 305 305 306 307 307 307 307 307 307 307 306 306 306 306 306 306 306 306 306 306 307 307 307 307 307 307 306 305 305 306 306 306 306 306 306 306 306 306 306 306 306 307 307
318 316 316 318 319 320 319 320 322 320 321 323 321 322 323 319 319 321 318 317 320 319 318 319 317 317 321 321 316 315 315 310 306 304 302 301 300 299 300 300 301 302 303 304 305 306 306 306 306 306 306 306 306 306 306 305 305 305 305 305 305 305 306 306 306 306 306 307 307 306 306 305 305 305 305 305 305 304 304 304 304 304 304 304 304 304
315 316 319 319 319 319 321 325 323 318 320 323 319 319 320 317 319 321 317 318 318 314 320 323 315 315 321 321 318 316 314 312 308 305 303 301 300 299 299 299 299 300 302 304 304 305 305 305 305 305 305 305 305 305 305 305 305 305 305 305 305 305 305 305 305 305 305 306 306 306 306 305 304 304 304 304 304 304 304 303 303 303 303 303 303 303
313 313 316 320 321 321 324 324 319 319 320 317 314 318 322 321 321 319 315 318 317 314 320 323 317 317 323 326 321 314 315 316 309 305 303 301 299 299 298 298 299 300 301 302 303 304 304 304 304 304 304 305 305 304 304 304 304 304 304 304 304 304 304 304 304 304 305 304 304 305 304 304 304 303 303 303 303 303 303 303 303 303 303 303 302 302
313 310 311 315 318 318 320 315 311 314 314 311 315 321 324 325 324 321 320 320 317 319 323 321 318 317 320 328 324 315 316 315 309 305 303 300 299 299 298 298 298 299 300 302 302 303 303 304 304 304 304 304 304 304 304 304 304 304 304 303 304 304 303 303 304 304 304 303 303 303 303 302 302 301 301 301 301 301 302 302 302 302 302 302 302 302
314 313 312 312 312 312 316 314 310 311 310 312 321 323 321 325 324 322 323 321 318 324 325 319 316 315 319 326 320 312 312 311 309 307 302 300 299 298 298 298 298 299 300 302 303 303 303 303 304 304 304 304 304 304 304 304 303 303 303 303 303 303 302 302 302 302 302 302 302 301 301 301 300 300 300 300 300 300 300 300 301 301 301 301 301 301
319 319 314 311 311 312 317 319 315 315 315 317 321 321 321 322 319 319 322 320 320 323 318 315 316 315 319 320 310 305 306 306 307 305 301 300 299 298 298 298 299 300 301 302 303 303 304 304 304 303 303 303 303 303 303 303 303 303 303 302 302 302 302 301 301 301 300 300 300 300 299 299 298 298 298 298 298 298 298 298 299 299 300 300 300 300
321 322 315 313 314 313 316 319 318 320 319 316 318 321 322 320 318 320 321 316 317 320 315 312 315 318 320 314 305 301 301 300 302 302 301 299 298 298 298 299 300 301 303 303 303 304 304 303 303 303 303 303 302 302 302 302 302 302 302 301 301 301 301 300 300 299 299 299 299 298 298 298 297 297 297 297 297 296 297 297 297 298 298 298 299 299
320 322 319 317 316 314 315 315 321 327 319 314 318 319 319 322 322 321 320 317 317 321 317 312 315 321 320 311 302 301 299 298 300 300 299 299 298 299 299 300 302 302 303 303 303 303 303 303 302 302 302 302 302 302 301 301 301 301 301 300 300 299 299 299 298 298 298 297 297 297 297 296 296 296 296 296 295 295 295 295 295 296 296 296 297 297
317 321 322 316 312 313 314 312 316 324 319 313 314 316 316 322 322 317 319 319 318 320 319 317 318 317 312 305 301 301 299 298 299 298 298 299 298 299 300 301 303 303 303 303 303 303 302 302 302 301 301 301 301 301 300 300 299 299 298 298 297 297 297 297 296 296 296 296 296 295 295 295 295 295 294 294 294 293 293 293 293 293 293 293 294 294
316 321 321 313 310 312 312 312 312 315 319 314 313 320 320 317 318 319 319 316 314 317 318 318 318 312 307 307 304 302 301 299 299 298 298 298 298 299 300 302 303 303 303 302 302 302 301 301 301 301 301 300 300 300 299 298 297 296 296 295 295 295 294 294 294 294 294 294 294 294 294 293 293 293 293 293 292 292 291 291 291 291 291 291 291 291
318 320 319 314 314 312 307 310 310 308 314 318 317 320 317 313 317 321 320 318 317 317 317 318 318 314 313 312 306 303 303 301 300 299 298 298 298 299 301 303 303 302 302 302 302 301 301 300 300 300 300 300 299 297 296 296 295 295 294 294 294 293 293 292 292 292 292 292 292 292 291 291 291 291 291 291 291 291 290 290 290 290 289 289 289 289
318 319 318 314 314 314 310 312 314 310 310 315 316 315 314 316 320 319 318 319 319 317 318 321 319 316 317 315 310 307 306 303 301 301 299 298 298 300 302 303 303 303 302 302 301 301 300 300 300 300 299 298 297 296 295 295 294 294 293 292 292 291 291 291 290 290 290 290 290 290 290 290 290 290 289 289 289 289 289 289 289 289 289 289 288 288
319 319 318 314 312 314 315 316 320 317 310 309 312 313 315 318 320 319 316 318 319 316 317 319 317 319 321 318 315 310 305 303 303 303 301 299 300 302 303 303 304 303 302 302 301 301 300 300 299 298 298 297 296 295 294 293 292 292 291 291 290 290 289 289 289 289 289 289 289 289 289 288 288 288 288 288 288 288 288 288 288 288 288 288 288 288
317 316 318 317 313 313 316 317 320 321 315 313 315 315 315 314 316 317 314 316 320 318 318 316 315 320 320 313 313 310 304 303 304 303 301 299 302 304 304 304 304 303 302 302 301 301 300 299 298 298 297 296 295 294 293 292 291 291 290 290 289 289 289 289 289 288 288 288 288 288 288 288 288 288 288 288 288 288 288 288 288 288 288 288 288 288
316 316 320 320 317 317 319 316 315 319 320 320 321 318 317 316 316 316 314 315 317 316 318 316 315 320 315 307 308 307 303 302 301 301 300 300 303 305 304 305 304 303 303 302 301 301 299 298 297 297 297 295 294 292 291 291 290 290 290 289 289 289 289 289 288 288 288 288 288 288 288 288 288 288 288 288 288 288 288 288 288 288 289 288 288 288
313 317 320 319 317 317 316 310 307 311 316 318 317 315 317 317 316 317 315 315 316 314 315 315 316 317 310 304 304 303 301 301 300 301 302 303 304 305 305 305 304 302 302 301 301 300 298 297 297 297 296 294 292 291 290 290 290 289 289 289 289 289 289 288 288 288 288 288 288 288 288 288 288 288 288 288 289 289 289 289 289 289 289 289 289 289
313 318 318 318 318 315 312 310 309 310 312 314 314 313 314 315 316 316 315 315 316 315 314 314 315 315 309 303 302 301 301 301 301 303 304 304 305 305 304 304 303 303 301 300 300 299 297 297 296 295 293 291 291 290 290 289 289 289 289 289 289 289 289 289 289 289 289 289 289 289 289 289 289 289 289 289 289 289 289 289 289 289 289 289 289 289
314 317 317 317 318 316 313 312 313 314 314 313 314 312 311 313 314 312 312 313 313 313 314 314 313 314 311 304 302 302 301 301 300 301 303 304 304 304 303 303 303 302 301 300 299 297 296 295 293 292 291 290 290 290 289 289 289 289 289 289 289 289 289 290 290 290 289 289 289 289 289 289 289 289 289 289 289 289 289 289 289 289 289 289 289 288
315 316 316 316 316 315 314 313 313 314 313 311 311 309 309 311 311 310 310 311 312 311 312 312 312 312 309 305 305 305 303 303 302 301 302 303 302 302 302 302 302 302 300 299 297 296 295 293 292 291 290 290 290 289 289 289 289 289 289 289 290 290 290 290 290 290 289 289 289 289 289 289 289 289 289 289 289 289 289 289 288 288 288 288 288 288
315 314 314 315 315 313 313 313 311 311 313 312 311 309 309 309 309 308 309 310 310 310 309 309 310 310 308 307 307 306 306 306 303 300 301 301 300 301 301 300 301 300 298 297 295 294 293 292 291 291 291 291 291 291 291 291 291 291 290 290 290 290 290 290 290 289 289 289 289 289 289 289 289 289 289 289 289 289 288 288 288 288 288 288 288 288
314 313 311 313 313 311 311 311 309 309 312 313 311 310 309 307 306 307 307 308 309 308 308 307 306 307 308 307 306 305 306 305 301 299 300 300 299 301 300 299 299 297 296 295 295 294 292 291 292 292 292 293 292 293 292 292 292 292 291 291 291 290 290 290 290 289 289 289 289 289 289 289 289 290 289 289 289 288 288 288 288 288 288 287 287 287
314 313 310 310 313 310 307 308 307 306 308 309 309 309 309 306 305 305 306 306 306 306 306 305 304 305 305 303 303 303 302 301 300 299 300 300 299 300 299 298 297 296 295 295 294 293 293 293 293 293 293 293 293 293 292 292 292 292 292 291 291 291 291 290 290 290 289 289 289 289 289 289 290 290 289 289 289 288 288 288 288 287 287 287 286 286
310 312 308 308 312 309 305 305 305 304 305 306 305 305 305 304 303 303 304 303 303 304 304 304 303 303 302 301 301 301 300 299 299 299 299 299 299 298 298 297 296 295 294 294 293 294 294 293 293 293 293 293 292 292 292 292 291 291 291 291 291 291 291 290 290 290 290 290 289 289 289 289 289 289 289 289 289 288 288 287 287 286 286 286 286 285
307 309 306 306 309 307 303 303 305 304 303 303 303 302 302 301 301 301 301 301 302 302 302 302 302 301 301 300 299 299 299 298 298 298 298 298 298 297 296 295 294 294 293 293 293 293 293 292 292 291 291 291 291 292 292 292 292 291 291 291 291 290 290 290 290 290 290 290 289 289 289 289 289 289 289 289 288 287 287 287 286 285 285 285 285 284
306 307 304 305 309 306 301 301 303 302 301 301 301 301 300 300 300 300 300 300 301 301 300 300 301 301 300 299 297 297 297 296 296 297 297 297 297 296 295 294 294 293 293 293 292 291 291 291 291 291 290 290 290 290 291 291 291 291 290 290 289 289 289 289 288 289 289 289 289 289 289 289 289 288 288 288 287 286 285 285 284 284 283 283 283 283
306 306 305 305 307 303 299 300 302 301 301 301 299 299 299 298 298 298 299 299 299 299 299 299 299 300 299 298 298 297 294 293 294 295 296 296 295 294 293 293 292 292 292 292 291 291 291 291 291 291 290 290 290 290 290 290 290 289 289 289 289 288 288 288 288 288 288 288 288 288 288 288 287 287 286 286 285 284 284 283 283 283 282 283 283 283
303 306 305 303 304 301 297 298 300 300 300 299 298 300 300 298 298 298 298 298 298 298 299 299 298 299 298 298 299 299 296 293 293 294 294 294 293 293 292 292 292 291 291 291 291 290 291 291 291 290 290 290 290 289 289 289 289 289 289 288 288 288 288 288 288 288 287 287 287 287 287 286 285 285 284 284 283 283 283 282 282 282 282 282 283 283
303 304 303 302 303 300 296 298 299 299 299 298 298 299 299 298 299 298 297 297 297 297 298 298 298 299 297 297 298 297 296 294 292 292 292 292 292 292 292 292 292 291 291 291 291 291 291 291 290 290 290 289 289 289 289 289 289 289 288 288 288 288 288 288 288 287 287 286 286 285 285 284 284 283 283 283 282 282 282 282 282 282 282 282 282 282
303 303 302 301 300 298 296 298 299 297 297 297 297 296 295 295 296 296 296 297 296 296 297 297 298 296 294 295 295 294 293 292 291 291 292 292 293 293 292 293 292 292 292 292 291 291 291 290 290 290 289 289 289 289 289 289 289 288 288 288 288 288 287 287 287 287 286 285 284 284 283 283 283 283 282 282 282 282 282 282 282 282 282 282 282 282
301 302 302 301 299 298 298 298 298 297 296 296 297 296 295 295 296 297 297 297 296 294 294 296 298 294 291 292 293 292 292 291 291 292 292 292 293 292 292 293 292 292 292 291 291 290 290 290 290 289 289 289 289 289 289 288 288 288 288 288 288 287 287 287 286 286 284 284 283 283 283 282 282 282 282 282 282 282 282 282 282 281 281 281 281 281
299 300 302 301 299 298 297 297 297 297 296 297 297 296 294 294 296 297 297 298 297 293 292 296 298 292 288 290 291 291 291 292 293 294 293 292 292 292 292 292 292 291 291 291 290 290 289 289 289 289 289 289 289 289 288 288 288 288 288 287 287 287 287 286 286 285 284 283 283 282 282 281 281 281 281 281 281 281 281 281 281 281 280 280 280 279
297 298 299 300 299 297 296 297 297 296 296 298 298 296 293 293 294 295 296 298 297 292 292 295 294 289 288 290 291 290 292 293 294 294 293 292 292 291 291 291 291 291 291 290 290 290 289 289 289 289 289 289 289 288 288 288 288 288 287 287 287 287 287 286 285 284 283 283 282 282 281 281 280 280 281 281 281 280 280 280 280 280 279 279 278 278
296 297 298 298 298 297 296 296 296 296 296 298 297 294 292 292 294 295 296 298 295 291 292 294 292 291 291 291 290 291 293 294 294 293 292 292 291 291 291 291 291 291 290 290 290 289 289 289 289 289 289 288 288 288 288 288 288 287 287 287 287 287 286 285 284 283 283 282 281 281 280 280 280 280 280 280 280 280 280 280 279 279 278 278 277 277
294 295 296 297 297 297 296 296 295 295 297 296 295 294 292 292 294 296 296 297 294 291 293 295 294 294 293 291 290 291 293 293 293 293 293 292 291 291 291 290 290 290 290 290 290 289 289 289 289 289 288 288 288 288 288 287 287 287 287 286 286 286 285 284 283 282 282 281 281 280 280 280 280 280 280 280 280 280 279 279 278 278 277 277 276 275
293 294 294 296 296 296 296 296 295 295 296 295 293 293 292 293 295 296 295 295 294 292 293 294 293 294 293 292 292 292 293 293 293 293 292 292 291 291 291 290 290 290 290 289 289 289 289 289 288 288 288 288 288 287 287 287 286 286 286 286 286 285 284 283 282 282 281 281 280 280 280 280 280 280 279 279 279 279 279 278 277 277 276 276 274 273
294 294 293 294 295 295 294 294 294 295 295 293 293 293 293 294 296 296 294 294 293 293 293 293 293 293 293 293 293 293 293 293 293 293 292 292 292 291 291 290 290 290 290 290 289 289 289 288 288 288 288 288 287 287 287 286 286 286 286 285 285 283 282 282 282 281 281 280 280 280 280 280 279 279 279 279 278 278 278 278 277 277 275 274 273 272
295 295 295 294 294 294 294 294 294 294 293 293 294 295 294 295 296 294 294 294 293 293 293 293 293 293 293 293 293 293 293 293 293 293 292 292 292 291 290 290 290 290 290 289 289 289 288 288 288 288 287 287 287 287 286 286 286 285 285 284 283 282 282 281 281 281 280 279 279 279 279 279 279 279 278 278 278 278 277 277 277 276 275 273 273 272
295 295 296 296 295 294 294 295 295 294 292 293 294 295 294 294 295 294 294 293 293 293 293 293 293 293 293 293 293 293 293 293 292 292 292 292 292 291 290 290 290 290 289 289 289 288 288 288 288 287 287 287 287 286 286 285 285 285 284 283 282 282 281 281 281 280 279 279 279 279 279 279 278 278 278 278 277 277 277 276 276 275 274 274 273 272
293 291 292 294 295 293 291 292 292 292 291 292 294 294 294 294 294 294 293 293 292 292 292 292 293 293 293 293 293 292 292 292 292 292 292 292 292 291 290 290 290 289 289 289 289 288 288 288 287 287 287 287 286 286 285 285 284 284 283 282 281 281 281 280 280 279 279 279 279 279 278 278 278 278 278 278 277 276 276 275 275 274 274 274 273 272
292 290 291 293 294 294 293 292 291 291 292 292 293 294 294 293 293 293 293 292 292 292 292 292 292 292 292 292 292 292 292 292 292 292 292 292 291 291 290 290 290 289 289 289 288 288 288 287 287 287 286 286 285 285 284 284 284 283 282 281 281 281 280 280 279 279 279 278 278 278 278 278 278 278 278 277 277 276 276 275 275 274 274 274 272 271
292 292 293 293 293 293 293 293 291 291 292 292 292 293 293 293 293 292 292 292 292 292 292 292 292 292 292 292 292 291 291 291 291 291 291 291 291 291 290 290 290 289 289 288 288 288 287 287 286 286 285 285 284 284 284 283 283 282 281 281 280 280 279 279 279 278 278 278 278 277 277 278 278 278 278 277 276 276 276 275 275 274 274 274 272 270
292 292 293 293 292 292 292 292 291 291 291 292 292 292 292 292 292 292 292 292 292 292 292 292 292 292 292 292 292 291 291 291 291 291 291 291 291 291 290 290 289 289 289 288 288 287 287 286 286 285 284 284 284 284 283 283 282 281 280 280 280 279 279 278 278 278 278 277 277 277 277 277 277 277 277 276 276 276 276 276 275 274 274 274 273 271
292 292 292 292 292 292 292 291 291 291 291 292 292 292 292 292 292 292 292 292 292 292 292 292 292 292 292 292 292 291 291 291 291 291 291 291 291 291 290 290 289 289 288 288 288 287 287 286 285 284 284 284 283 283 282 281 280 280 280 279 279 279 278 278 278 278 277 277 277 277 277 277 277 277 276 276 276 276 276 276 276 274 273 273 273 272
292 292 292 291 292 292 291 291 291 291 291 292 292 292 292 292 292 292 292 292 292 292 292 292 292 292 291 292 291 291 291 291 291 291 291 291 290 290 289 289 288 288 288 287 287 286 286 285 285 284 284 283 283 283 282 280 279 279 279 278 278 278 277 277 278 277 277 276 276 276 277 277 277 277 276 276 275 275 275 276 277 276 274 272 272 272
Wind_Speed
7 4 2 5 7 9 10 11 11 8 4 3 2 3 5 5 6 5 6 7 1 1 7 6 4 6 8 10 15 20 16 12 12 4 7 11 14 16 18 19 19 19 19 17 16 16 15 14 13 12 12 11 10 10 8 6 6 7 6 5 4 2 2 3 4 5 6 6 7 8 8 9 10 11 12 13 13 14 14 15 16 17 18 19 20 21
5 4 6 10 11 11 8 7 7 5 2 2 3 4 6 5 7 7 6 6 1 1 5 3 4 8 10 10 12 14 11 11 10 7 15 17 18 18 19 20 20 20 19 19 20 21 21 21 21 20 20 19 19 18 16 14 14 13 12 11 10 8 6 4 2 1 2 3 4 6 8 9 10 10 11 11 12 12 13 14 15 16 17 18 19 19
2 3 11 15 10 5 3 2 5 4 3 3 3 2 4 4 4 7 5 4 2 0 4 4 4 8 11 8 8 12 9 11 13 16 17 18 20 18 19 19 20 21 21 23 25 26 27 27 27 27 28 28 27 26 24 23 21 20 20 18 16 14 12 11 9 7 5 3 2 3 5 7 9 10 10 11 11 11 12 13 13 14 15 16 17 18
3 6 13 15 7 2 5 4 5 3 2 4 4 3 5 4 1 4 5 4 3 1 2 4 5 6 9 4 7 11 12 16 18 21 20 19 21 19 19 20 21 23 24 26 27 28 29 29 29 30 30 29 28 28 28 27 27 26 26 24 21 19 17 16 14 12 10 8 5 4 3 4 5 6 7 9 10 11 12 13 13 13 14 15 16 17
6 8 7 4 5 6 6 6 3 4 2 4 5 6 5 5 5 5 4 5 4 4 2 3 5 4 5 3 3 5 11 14 15 19 20 18 20 19 19 20 21 23 25 26 28 28 29 29 29 29 29 28 28 29 29 29 28 28 27 26 24 22 21 19 18 16 14 11 9 6 5 4 4 4 4 4 6 8 9 11 12 13 14 15 17 18
8 10 3 4 4 6 6 5 3 6 3 4 5 8 9 7 6 4 2 5 4 4 3 4 4 4 5 4 3 4 5 7 9 14 15 15 17 18 19 20 21 23 24 26 28 28 29 29 28 28 28 27 28 29 28 28 27 26 26 25 24 23 22 21 20 19 17 15 13 11 8 6 6 5 5 4 4 4 5 7 8 11 13 15 16 18
6 8 4 5 4 5 5 5 5 7 4 3 5 6 7 4 3 2 2 2 1 3 3 3 1 5 6 5 4 5 4 5 6 9 11 13 15 16 18 19 20 22 24 26 27 27 28 27 27 27 27 27 28 27 26 25 25 25 24 24 23 23 23 22 21 20 19 18 17 16 14 11 9 9 9 9 8 8 7 5 5 6 8 10 12 14
4 4 2 5 5 4 5 5 6 8 7 3 4 4 6 5 5 5 4 2 3 2 4 2 3 3 5 5 4 6 5 4 5 6 7 10 13 15 16 18 20 21 23 25 26 26 26 26 26 27 26 26 25 24 23 23 23 23 23 23 22 22 22 22 21 20 19 19 19 18 16 14 12 11 11 10 10 10 10 9 9 7 5 4 5 6
2 3 4 6 5 4 6 5 7 10 5 6 5 6 6 5 6 5 4 2 1 1 5 4 2 2 5 5 2 3 5 3 4 4 4 7 11 14 15 16 18 20 22 24 25 25 25 25 25 25 24 23 22 22 21 22 22 22 21 21 20 21 22 21 20 20 20 20 19 18 17 16 14 13 12 11 11 11 11 11 11 11 10 8 6 5
0 2 4 7 5 5 5 2 5 9 4 4 5 5 4 5 4 4 4 2 2 1 5 6 4 2 4 5 3 1 3 5 4 3 4 8 11 12 14 15 17 19 21 22 23 24 24 23 23 22 21 20 20 20 20 20 20 20 20 19 19 20 20 19 19 18 18 18 18 18 18 17 16 15 14 13 12 12 12 12 11 11 11 11 10 9
2 1 1 3 4 5 5 3 1 3 3 5 6 5 6 5 4 4 2 3 2 3 6 8 8 5 3 5 3 2 2 4 8 5 5 8 11 12 13 14 16 18 20 21 22 22 22 21 20 18 18 18 18 17 17 17 18 18 18 18 18 18 17 17 16 16 16 16 16 16 16 15 15 14 13 13 13 13 13 13 12 12 12 12 12 12
5 1 2 2 3 4 6 4 4 4 4 6 5 4 3 4 4 4 4 3 1 5 6 5 5 5 3 4 2 3 6 1 6 8 9 10 12 13 13 15 17 18 19 20 20 20 19 18 16 15 15 15 14 14 14 15 15 15 15 15 15 15 14 14 14 14 14 14 14 14 14 13 13 12 12 12 13 13 13 13 12 11 11 11 11 11
3 4 3 2 2 4 6 3 3 5 5 5 4 5 3 2 3 3 3 1 3 6 4 2 5 2 5 2 4 6 9 9 2 9 14 16 16 15 15 16 17 17 18 18 17 17 15 14 13 12 12 11 11 12 12 12 12 12 12 11 11 12 12 12 12 12 12 11 12 12 12 13 13 12 12 13 13 12 13 13 12 12 12 12 11 12
3 5 2 1 3 5 7 4 2 1 1 4 5 5 4 2 1 3 4 2 4 5 3 1 3 2 4 2 5 6 7 8 6 14 19 20 19 17 16 17 17 17 17 16 15 13 11 11 10 9 9 9 9 10 10 10 10 9 9 9 10 10 10 9 9 9 9 9 10 10 11 11 11 12 13 13 13 13 13 13 13 13 13 13 13 13
2 5 3 4 2 6 8 5 5 5 3 4 4 5 5 4 4 4 4 3 4 5 4 2 1 2 3 2 4 4 6 10 15 19 19 19 18 17 17 17 17 17 15 13 11 10 9 8 7 7 7 7 7 7 7 7 7 7 7 7 7 7 7 7 7 7 8 9 10 10 10 11 12 12 13 13 14 14 14 14 14 13 13 13 13 13
3 5 6 2 1 6 6 3 5 6 2 2 3 4 3 4 5 2 3 5 3 3 3 2 2 2 2 1 3 3 7 11 14 16 17 17 16 17 17 17 17 15 13 11 8 7 6 6 5 5 5 5 5 5 5 4 4 4 4 5 5 5 5 5 5 6 7 8 9 9 10 11 11 12 12 13 14 15 15 16 15 14 14 14 14 14
2 4 5 2 1 4 4 2 4 3 2 2 3 3 4 4 5 2 3 0 3 1 4 1 2 2 1 1 2 3 5 7 8 10 13 14 14 15 16 17 15 12 10 8 6 4 4 3 3 2 3 4 4 4 3 2 3 3 4 5 5 5 5 5 5 5 6 7 8 8 9 9 10 11 12 13 14 15 16 16 16 16 15 15 15 16
4 3 5 1 2 1 2 3 3 3 3 4 3 4 3 1 4 4 1 2 2 2 4 1 3 3 1 2 1 1 2 3 2 4 9 10 12 14 16 16 13 9 7 5 3 2 2 2 1 1 3 3 2 1 1 2 3 4 4 5 5 5 5 5 5 5 6 6 7 7 7 8 9 10 11 12 13 13 14 15 16 17 17 17 17 18
3 1 6 1 3 2 2 3 2 4 3 4 3 2 3 1 1 1 1 2 1 3 4 4 4 3 3 4 4 5 6 4 4 5 6 8 12 15 16 14 10 7 5 3 2 2 2 2 2 1 2 1 1 1 1 2 4 4 5 5 5 5 6 6 6 6 7 7 8 8 8 8 9 10 10 11 12 12 13 14 15 16 17 17 18 19
3 2 4 3 0 1 4 2 3 2 2 3 2 1 1 2 3 2 2 3 3 3 4 5 5 3 4 5 6 8 8 8 7 6 6 10 16 18 16 11 7 6 5 4 3 4 4 4 4 3 3 2 1 1 1 3 4 5 6 6 7 8 8 8 8 9 9 9 9 9 9 9 9 10 10 11 12 12 13 14 14 15 16 17 18 19
2 3 2 3 2 0 1 2 5 5 3 2 1 0 1 1 1 1 1 3 3 3 3 4 6 5 4 3 6 9 8 9 9 7 8 15 19 19 14 6 4 6 6 5 5 6 6 6 6 5 4 3 2 1 2 3 4 5 6 7 8 9 9 10 11 11 11 11 11 11 11 11 12 12 12 13 13 14 15 15 16 17 18 18 19 20
2 2 2 2 1 2 3 3 4 6 6 5 4 3 3 3 1 2 4 1 2 3 3 4 6 5 4 2 4 8 8 9 12 12 13 19 20 16 11 6 6 8 8 8 7 7 8 7 7 6 5 4 2 1 0 2 3 4 5 6 7 8 9 11 12 12 13 14 14 14 15 15 16 16 17 18 19 20 20 21 21 22 22 22 23 23
3 3 2 3 3 5 4 2 1 3 5 5 2 2 3 3 4 3 6 3 1 1 1 2 3 4 3 2 3 6 9 12 17 17 15 19 18 11 9 9 10 11 11 10 9 9 9 8 8 7 6 5 4 2 1 2 3 5 6 7 8 9 11 12 13 14 15 16 16 17 17 18 19 20 21 22 23 24 25 26 27 27 28 28 28 28
3 3 2 3 3 2 4 4 4 2 4 2 1 1 3 2 3 4 4 3 1 2 1 1 3 3 2 1 3 6 9 11 16 15 11 15 14 7 9 12 13 14 13 12 11 10 10 9 9 8 7 5 3 1 1 3 4 5 6 8 9 11 12 13 14 15 16 17 18 18 19 20 21 22 23 23 24 26 27 28 29 30 31 32 32 33
4 2 3 1 3 4 4 4 4 4 1 2 2 1 2 3 5 3 1 2 1 4 5 4 6 4 1 1 2 4 7 8 12 13 10 10 9 9 12 14 15 15 15 14 12 11 10 10 8 7 6 4 2 1 2 3 4 5 7 8 10 12 14 15 16 17 18 19 19 20 21 22 23 24 25 26 27 28 29 30 30 31 32 33 34 34
5 2 4 4 5 7 5 3 3 2 1 1 1 2 2 4 6 4 1 2 2 3 4 5 6 3 3 1 2 4 4 6 9 11 10 11 12 14 15 15 16 16 16 14 11 10 10 9 8 6 4 2 1 1 2 3 5 6 8 10 13 15 16 17 18 19 19 21 22 22 23 24 25 27 28 29 31 32 33 33 34 34 34 34 35 35
3 1 3 6 8 8 5 5 4 3 3 2 2 3 5 4 5 5 3 3 3 1 3 6 6 2 5 5 6 6 6 5 8 11 13 14 15 16 15 14 14 14 13 11 10 10 9 9 8 5 3 2 1 2 4 5 7 9 11 12 14 16 16 16 17 18 19 20 21 22 24 25 27 28 29 31 33 35 36 36 37 37 37 37 38 38
3 2 3 5 6 5 4 5 4 3 4 5 4 5 7 5 6 7 4 5 4 3 7 9 5 4 9 11 7 6 6 6 8 14 18 17 14 13 12 11 12 12 11 9 9 9 9 8 6 4 4 4 4 5 6 7 9 10 11 12 12 14 14 15 16 17 18 19 21 23 26 28 29 30 31 33 35 37 37 37 37 37 37 38 39 39
4 3 3 3 3 3 4 5 4 3 3 4 6 9 11 8 6 7 7 8 7 6 9 9 5 7 12 12 6 6 9 10 12 18 20 16 11 9 10 11 12 12 10 10 9 8 8 7 7 7 7 7 8 8 8 8 9 10 11 12 14 15 17 18 19 20 21 23 25 28 30 31 32 33 34 36 38 39 39 38 38 37 37 38 39 40
3 2 1 3 2 3 2 3 4 4 3 5 7 11 11 8 6 8 9 10 8 8 11 11 11 12 12 9 7 9 12 12 13 15 13 10 8 9 12 13 12 12 11 11 10 9 10 10 9 8 8 8 9 10 11 12 13 14 15 16 17 18 19 21 22 24 25 26 28 30 31 32 33 34 35 37 39 40 40 40 39 39 39 40 42 43
2 2 1 3 0 4 2 2 3 2 3 4 9 11 9 6 6 8 9 7 6 9 13 12 11 13 13 10 8 12 14 10 9 12 12 10 10 12 14 14 13 13 13 12 12 12 12 10 8 6 6 7 9 11 12 13 14 15 15 16 17 19 20 22 23 24 25 26 28 29 30 31 32 33 36 38 39 40 40 40 40 41 42 44 45 46
2 2 1 5 2 4 4 2 2 3 4 5 12 15 11 7 8 8 7 7 9 11 10 8 8 10 12 10 7 9 10 10 13 14 14 13 13 14 14 14 14 13 13 14 14 13 11 9 7 6 7 8 9 10 12 13 13 14 14 16 18 20 21 22 22 22 24 25 27 28 30 32 33 35 37 38 39 39 40 41 42 44 45 47 47 48
3 4 2 3 3 4 4 2 1 6 5 7 11 11 11 11 10 9 7 9 12 9 7 7 9 10 9 8 5 6 9 12 14 16 16 16 15 14 14 13 12 12 13 14 14 12 11 10 9 9 9 10 10 11 12 13 14 14 15 18 21 21 21 22 22 23 25 27 29 30 32 33 34 35 36 37 38 39 41 42 44 45 46 47 48 49
4 5 3 3 3 2 3 2 4 2 4 8 4 4 8 10 10 11 11 11 11 8 7 7 7 6 6 6 8 10 12 13 14 16 16 15 15 15 14 13 11 11 12 13 13 12 12 12 11 11 12 11 12 13 14 15 15 15 17 20 21 21 21 23 24 26 28 29 30 31 32 32 32 33 35 37 38 41 42 43 45 45 46 47 48 49
5 5 3 2 3 2 0 5 2 7 9 5 2 1 5 7 8 9 9 9 9 9 9 8 7 6 9 13 17 17 14 10 11 13 13 12 14 15 15 15 14 13 12 13 13 13 13 12 12 13 13 13 14 15 15 15 15 16 19 21 22 22 23 25 26 28 29 29 29 29 29 30 32 34 37 38 40 41 42 43 45 45 46 47 48 49
5 4 3 2 3 2 2 4 5 7 6 7 7 4 2 2 3 3 5 8 9 10 9 8 9 9 13 17 15 11 7 7 9 11 11 11 13 14 14 15 15 14 14 13 13 13 12 13 14 15 15 15 16 16 16 16 17 18 21 23 23 24 25 27 28 28 28 27 27 28 29 32 35 37 39 40 41 42 43 43 44 45 46 47 49 50
6 4 2 2 2 2 3 5 4 4 8 12 10 4 4 4 5 5 3 8 7 6 8 8 8 9 10 11 9 7 7 5 4 7 10 11 11 11 12 13 13 13 13 12 12 12 13 14 15 15 16 17 18 18 18 18 19 21 23 24 25 26 27 28 28 28 28 27 28 30 32 34 36 38 39 40 41 41 42 43 43 44 46 48 50 51
4 5 5 4 3 3 3 4 4 2 7 11 7 2 2 6 8 7 3 6 5 6 12 10 7 7 8 8 9 9 6 2 3 7 11 12 10 9 10 12 13 14 14 13 13 13 13 14 15 16 19 20 20 20 19 20 22 24 26 26 27 28 28 29 29 29 28 29 31 33 34 35 36 37 38 38 39 40 41 42 43 45 46 48 50 51
2 1 4 4 2 3 4 5 6 5 8 8 6 4 3 9 10 8 3 5 6 9 15 11 7 10 13 14 14 11 5 2 4 11 15 14 11 10 11 13 16 16 16 16 14 14 14 15 17 19 21 22 22 21 21 22 25 27 28 28 29 30 31 31 30 30 30 31 33 34 35 35 35 36 36 37 38 39 41 42 44 45 46 47 48 50
3 1 3 4 6 6 6 5 4 4 6 5 6 7 7 8 7 7 1 8 5 10 15 14 12 14 18 18 16 10 6 7 8 15 17 14 11 11 12 15 18 19 18 17 15 15 16 18 20 22 23 23 23 22 23 25 28 29 29 29 30 31 32 31 30 30 31 32 34 34 34 34 34 35 35 37 38 40 41 43 44 45 45 46 47 47
1 1 3 5 8 9 9 6 3 4 6 5 7 12 12 5 5 3 5 6 8 13 14 16 16 17 19 21 18 13 14 17 17 19 17 12 11 11 13 16 20 19 18 17 17 17 18 20 22 23 24 24 23 23 25 27 28 29 29 29 31 32 31 31 30 30 32 33 33 33 32 32 33 34 35 36 38 40 41 42 42 43 44 45 45 45
2 1 2 4 5 6 5 4 3 5 7 9 11 13 12 5 1 6 5 2 8 12 12 15 18 17 19 24 24 21 22 23 22 21 19 15 14 14 15 18 21 20 19 18 18 19 21 22 23 24 25 25 24 25 27 28 28 28 29 30 31 31 31 30 30 32 33 33 32 32 32 32 32 33 35 36 37 40 41 40 40 41 42 42 42 41
6 4 3 5 4 3 2 4 4 5 7 15 15 5 4 6 6 8 7 7 10 12 12 15 18 17 20 24 26 26 26 24 24 24 22 19 17 17 19 21 22 21 20 20 21 22 23 23 25 25 25 26 26 27 28 28 28 29 29 30 30 30 30 30 32 33 33 32 32 31 31 31 32 33 34 35 36 38 39 39 39 39 39 38 38 39
4 5 4 4 3 5 4 6 6 4 6 20 20 8 10 18 19 15 11 10 11 12 12 15 18 19 21 24 25 27 27 27 26 26 24 22 21 21 22 22 22 22 22 22 23 23 23 24 25 26 26 26 27 28 28 28 29 29 29 30 30 29 30 31 32 33 32 31 31 30 30 31 32 33 34 34 35 36 37 37 37 37 36 35 35 36
6 6 5 3 3 5 5 6 7 6 9 21 26 21 20 24 27 23 15 10 12 15 17 19 21 23 23 24 26 28 28 28 28 27 27 26 25 23 24 24 24 24 24 23 23 23 24 25 25 26 27 27 27 27 27 28 29 29 28 29 29 29 30 32 32 32 31 30 30 29 30 31 31 32 33 33 33 34 34 34 35 35 34 33 33 34
6 4 3 1 1 3 4 5 6 6 9 20 28 28 23 21 22 21 17 17 20 22 23 23 25 25 24 25 27 28 29 29 29 29 29 28 27 26 25 25 25 25 24 23 23 24 25 25 26 26 27 28 27 27 27 28 29 29 28 28 28 30 31 32 32 31 30 29 29 28 29 31 31 31 32 31 31 31 31 31 32 33 33 32 32 33
5 4 3 2 2 2 3 5 7 9 12 18 24 28 28 26 23 21 21 24 27 27 27 26 27 27 26 26 27 28 29 29 30 30 30 29 29 28 27 27 27 26 24 24 24 25 25 26 26 27 27 28 28 27 27 27 28 28 28 28 29 31 31 31 31 30 29 28 28 28 29 31 31 32 32 31 30 29 28 28 30 31 31 31 32 33
3 3 3 4 6 5 4 7 11 15 16 17 19 24 26 27 26 25 27 29 30 29 29 28 28 28 27 27 28 29 29 29 29 30 29 28 29 30 30 30 28 25 24 24 25 25 26 26 27 28 27 27 27 27 27 27 27 28 28 28 30 31 31 31 30 29 28 27 27 27 29 30 31 31 31 30 29 28 27 27 29 30 28 28 31 34
3 2 3 4 4 3 5 10 10 9 10 17 24 28 29 30 32 32 33 33 31 30 30 30 30 31 31 32 31 30 30 31 30 30 29 28 28 31 32 30 27 25 25 25 26 26 27 27 28 28 27 26 27 27 26 25 25 27 28 29 30 30 30 30 29 28 27 26 26 27 28 29 29 30 30 30 29 27 26 26 28 31 30 28 28 32
4 4 3 4 3 4 5 10 11 6 6 17 28 32 32 32 32 31 31 30 29 29 28 28 29 32 33 33 33 31 31 31 28 26 27 27 28 30 31 28 26 25 25 26 27 27 27 28 28 28 27 27 27 27 25 24 24 26 27 28 29 29 29 29 28 27 26 25 26 27 28 28 28 28 28 29 29 28 27 24 23 26 30 30 28 29
14 14 9 6 6 9 11 17 20 15 12 21 30 32 30 28 26 26 26 26 26 25 24 25 27 29 30 30 30 30 29 28 27 27 28 28 28 29 28 26 25 25 26 27 27 27 28 29 29 28 28 28 27 27 26 24 24 26 27 28 28 27 27 27 27 27 26 25 25 26 27 28 28 28 27 27 27 28 29 27 22 18 22 27 31 31
Wind_Direction
152 132 161 209 217 210 214 207 211 227 218 234 252 242 247 249 271 269 264 280 328 337 272 271 288 275 282 283 286 303 320 330 323 316 130 117 107 99 92 87 83 80 79 78 79 78 75 74 73 73 72 69 67 64 58 54 53 46 35 22 18 10 319 271 254 242 232 233 235 238 243 247 249 251 254 256 257 259 259 259 260 260 261 262 264 266
138 166 220 221 219 217 223 209 211 244 256 249 247 264 274 256 261 257 254 284 343 163 265 325 344 294 285 281 301 330 347 353 359 97 116 106 101 96 93 90 87 88 89 90 88 85 85 84 83 83 81 79 74 71 68 63 59 56 56 55 53 51 44 41 37 5 252 243 242 245 243 242 243 243 247 251 253 257 257 258 258 259 259 259 261 263
148 213 238 232 225 235 275 174 171 212 206 213 219 233 267 252 272 280 275 304 360 269 275 333 343 292 286 289 349 18 44 42 54 100 108 104 103 96 94 94 95 97 95 94 91 88 87 85 85 84 80 78 76 74 72 69 68 67 65 62 59 56 52 49 48 44 35 17 328 279 257 248 244 241 243 245 248 251 253 255 256 257 257 256 257 258
187 233 243 237 213 187 271 238 155 164 205 219 208 201 250 240 221 275 287 312 327 322 286 313 319 290 285 302 39 46 70 69 75 95 97 100 100 96 98 98 98 98 94 94 92 90 90 88 86 83 80 79 77 75 73 70 69 67 65 63 62 60 56 53 49 45 41 33 16 348 312 283 265 250 244 244 247 251 253 257 258 258 258 255 255 254
216 238 239 211 162 168 235 264 168 157 242 251 217 211 239 242 217 224 287 325 333 352 11 355 335 301 289 311 62 67 76 73 77 87 85 89 94 97 99 98 97 97 95 95 94 93 91 89 86 83 81 78 75 72 68 66 64 64 64 64 63 62 60 58 55 52 50 47 39 19 349 325 316 304 285 263 257 258 259 262 264 265 263 260 257 254
244 249 220 116 140 164 196 255 215 174 230 290 236 216 225 239 241 232 333 4 17 337 336 33 2 293 310 331 187 169 78 65 69 75 76 81 91 97 96 94 97 97 97 96 94 94 92 90 88 84 81 77 73 70 65 63 61 61 62 62 61 61 60 58 56 55 53 54 54 48 38 18 3 359 3 7 351 318 290 277 273 271 269 267 265 262
247 245 205 167 178 157 179 245 233 173 154 287 248 208 206 203 196 173 98 60 132 250 285 57 105 261 311 318 218 173 109 84 73 64 70 80 87 94 96 97 98 97 99 98 96 96 94 91 88 84 80 77 74 71 67 64 61 59 59 59 59 58 58 57 55 53 51 52 53 51 47 37 27 26 26 23 18 10 1 342 313 290 277 271 268 267
222 227 170 181 194 180 204 246 223 163 134 238 238 141 131 130 147 153 119 150 220 247 312 354 160 242 290 279 229 157 130 102 82 67 68 81 87 93 98 99 100 100 100 99 98 96 92 89 86 82 80 77 74 71 68 64 61 59 58 57 57 56 56 56 54 53 51 50 51 52 50 44 36 32 28 25 21 16 14 10 5 360 347 319 291 275
201 198 195 170 160 188 214 231 190 156 143 237 212 132 121 130 149 146 121 185 258 12 306 290 160 242 261 267 292 151 168 172 133 126 97 95 100 103 104 103 102 102 100 99 97 94 91 87 84 81 78 75 72 68 63 60 59 58 57 56 55 55 55 55 53 53 53 53 54 54 53 51 47 40 34 33 32 29 26 23 16 12 10 6 356 334
31 216 209 150 147 202 214 244 177 163 179 210 160 105 60 67 89 94 115 132 32 347 255 238 187 202 266 281 307 119 208 210 163 144 135 124 119 115 112 109 107 104 102 100 97 94 90 87 83 80 76 71 67 63 59 57 56 54 53 51 50 53 55 54 53 52 54 56 55 56 55 53 51 46 40 40 40 39 37 33 25 16 10 7 0 350
323 6 251 154 184 194 149 71 75 151 154 125 101 55 24 21 37 41 68 89 60 275 251 225 195 174 274 282 230 176 260 187 151 146 160 145 133 126 120 116 112 107 104 101 98 95 90 86 83 78 72 67 64 60 56 53 51 49 49 46 45 50 52 51 50 48 48 49 48 50 51 49 48 44 39 38 38 38 37 34 30 21 12 5 357 349
331 335 266 249 217 146 108 75 32 42 78 95 85 63 36 340 6 22 355 41 111 254 269 233 171 150 221 266 296 316 326 329 158 167 170 155 140 132 127 123 117 110 107 103 99 95 92 88 84 76 69 65 61 56 52 51 48 46 46 44 41 46 49 46 43 38 35 34 34 37 38 38 39 36 31 30 29 29 29 29 27 22 15 8 358 351
314 249 266 318 253 168 119 81 17 12 40 81 94 86 71 324 347 351 301 330 217 252 276 162 122 135 233 241 5 345 336 333 300 159 155 148 140 136 134 129 122 116 112 107 102 98 95 90 82 73 66 61 56 51 49 48 45 43 44 42 37 41 45 40 34 31 28 26 29 30 29 30 30 28 26 25 24 24 22 21 18 14 12 10 4 358
295 296 306 11 276 197 155 144 198 270 111 139 143 127 123 145 209 266 265 274 268 271 289 162 126 284 265 312 4 346 337 351 64 123 139 140 138 138 137 132 126 122 117 110 105 100 94 87 79 70 62 56 51 49 46 43 42 40 38 35 33 36 40 35 29 27 23 25 30 30 26 24 21 19 19 19 21 22 21 18 14 11 9 6 4 2
211 304 237 182 230 185 173 181 167 143 146 176 158 137 148 160 173 224 229 222 262 284 299 292 214 213 227 309 340 358 22 47 82 111 127 131 136 139 137 134 130 124 118 111 104 97 92 88 81 70 61 53 50 49 44 41 41 37 35 36 36 40 41 34 27 22 21 25 26 24 20 17 14 13 12 12 13 15 16 15 12 9 7 4 1 359
168 259 250 242 156 158 174 204 141 112 104 210 129 116 169 186 165 195 212 184 192 301 298 251 224 210 178 275 331 30 51 62 81 103 118 128 139 143 141 138 132 125 119 113 107 101 97 95 88 71 56 50 49 46 41 41 48 53 56 57 52 52 48 36 27 20 20 21 19 17 13 9 8 6 5 6 7 8 10 9 7 5 4 1 358 355
144 261 276 352 58 149 156 178 141 131 189 166 122 175 215 180 133 126 267 192 98 270 274 212 221 294 349 270 320 31 45 52 67 99 124 138 148 150 148 142 134 129 125 121 117 114 112 109 99 65 37 31 29 33 38 57 79 79 73 66 58 54 49 39 31 22 17 17 13 8 4 359 356 356 357 359 1 3 3 1 360 0 358 355 352 350
153 254 280 107 143 208 122 108 71 55 125 130 164 212 206 125 86 96 234 330 30 250 272 270 212 236 246 238 270 56 75 70 82 134 144 151 161 161 155 147 141 138 136 136 134 137 151 159 141 17 6 5 18 39 79 86 72 64 62 61 59 56 51 44 39 30 22 20 15 8 1 356 352 352 352 353 354 353 353 350 349 350 349 347 347 346
126 229 286 324 154 254 26 89 54 14 63 124 178 192 118 133 270 72 160 225 241 243 274 292 264 234 209 200 195 195 184 164 180 191 179 176 178 174 165 156 154 156 160 167 171 207 222 220 242 293 313 286 201 154 72 43 41 45 48 51 54 51 46 42 35 29 24 20 16 10 5 359 355 353 350 349 348 345 342 340 339 340 339 339 339 339
100 148 278 309 214 308 30 79 191 260 30 67 63 18 61 162 181 176 176 176 186 229 265 287 289 270 233 202 182 187 182 172 182 196 204 194 185 180 172 165 173 183 194 207 214 236 240 234 242 252 260 250 240 292 16 35 36 43 41 38 39 35 32 29 22 20 18 15 13 8 5 1 355 353 350 349 348 345 342 339 337 336 335 334 333 332
86 140 243 299 331 59 151 199 188 180 155 109 100 219 254 212 168 253 233 138 146 194 234 268 273 266 252 208 170 174 176 180 182 180 198 197 188 184 178 177 215 214 217 232 240 249 241 230 235 244 254 262 279 320 19 40 35 37 31 27 27 23 19 17 12 11 9 6 5 1 357 354 350 349 348 347 346 343 342 339 337 335 334 333 332 330
138 152 194 256 303 180 220 239 179 167 156 149 169 189 188 173 141 270 261 203 149 189 195 231 259 268 260 219 163 165 173 187 184 176 190 197 191 188 192 213 237 226 230 240 244 249 237 225 234 243 251 254 245 230 109 52 33 30 24 19 19 14 10 8 5 3 359 357 355 351 348 346 343 343 343 343 342 341 339 338 336 334 332 330 329 328
114 112 159 227 219 208 240 289 188 169 141 131 156 170 158 146 134 185 236 233 189 227 158 174 245 274 265 219 167 172 180 186 184 178 188 197 192 194 218 237 237 227 229 238 243 243 229 222 235 238 232 222 202 183 132 42 21 16 14 12 13 9 6 3 360 357 354 351 348 344 342 340 338 339 338 338 338 337 335 334 332 331 329 327 326 324
103 103 176 255 304 313 312 333 354 30 99 123 293 137 144 166 152 170 205 175 146 238 235 275 252 253 256 180 151 183 193 191 190 189 201 202 195 214 253 253 248 236 232 237 241 235 223 221 225 215 203 194 176 139 43 23 12 12 10 8 7 3 358 354 350 347 343 339 337 334 332 332 331 332 332 333 332 331 329 327 326 325 324 323 322 320
172 143 142 193 312 319 324 346 350 346 48 175 247 191 137 124 114 101 113 122 138 227 216 238 249 244 289 59 120 188 201 210 211 210 217 217 220 256 265 261 256 243 234 236 232 220 213 211 203 189 183 175 147 78 26 14 2 2 2 357 354 350 347 343 338 336 334 330 330 328 327 327 327 327 328 329 328 326 324 322 320 319 318 317 317 317
171 175 143 167 222 243 240 220 230 263 235 192 225 196 164 135 132 117 98 153 207 217 200 228 242 266 349 10 236 252 233 232 237 231 233 242 257 268 264 258 254 240 232 230 218 204 202 195 185 179 179 173 131 16 2 351 343 342 341 340 340 338 337 336 332 330 328 325 325 323 321 321 321 322 323 323 323 321 319 318 317 316 317 316 316 315
123 203 185 182 213 229 212 206 210 157 151 209 247 210 199 178 147 124 118 176 203 192 226 235 218 246 295 251 217 239 252 246 245 247 252 260 271 277 269 256 245 231 224 217 201 197 197 187 183 188 204 231 287 317 320 325 330 332 330 330 332 331 329 327 324 321 320 318 316 312 309 309 311 313 314 315 316 316 316 315 315 316 316 316 316 315
101 222 221 186 220 232 153 172 201 134 160 211 237 244 235 204 144 137 171 202 170 177 247 244 188 176 252 251 217 204 230 241 249 264 275 281 282 277 262 240 220 209 206 200 194 194 192 189 198 220 247 267 285 295 305 315 321 322 320 316 313 311 309 307 306 306 306 303 301 299 299 301 304 306 307 309 311 312 312 312 312 313 313 314 313 313
120 221 231 154 220 243 117 146 183 151 177 212 220 243 250 234 170 159 204 214 181 199 250 253 214 208 242 256 238 202 215 232 256 274 282 282 270 245 224 209 198 193 191 187 185 186 191 204 224 239 249 258 265 271 279 286 288 289 288 286 285 286 289 291 293 293 292 291 291 292 294 297 300 302 303 305 308 309 310 310 311 310 310 310 309 309
117 210 204 133 221 277 103 173 203 182 199 232 232 234 242 239 200 185 219 226 205 222 248 254 253 253 255 252 243 251 258 258 261 264 259 248 227 201 194 190 183 181 182 183 187 197 208 218 227 236 246 253 255 257 259 260 265 271 275 278 282 285 287 289 290 290 290 289 288 288 290 291 294 296 298 301 304 306 307 307 307 307 307 307 306 305
94 176 158 103 114 303 312 215 217 195 191 242 259 253 243 234 222 219 228 227 217 234 244 249 258 264 264 253 247 268 276 262 234 225 217 209 199 187 184 181 178 183 189 193 199 206 210 213 219 234 252 263 264 261 258 259 264 270 275 282 288 293 295 295 295 294 293 292 290 290 289 289 290 292 294 297 299 301 301 302 303 303 303 302 302 301
99 164 38 75 103 288 300 217 220 22 27 293 273 263 250 237 234 233 221 205 213 227 235 244 249 254 260 260 255 258 248 221 208 204 197 193 192 190 188 183 186 196 200 201 204 205 209 213 227 255 268 272 270 265 261 262 265 269 278 291 299 304 303 300 298 296 294 293 292 290 290 289 290 291 293 295 297 298 299 299 300 300 300 300 301 301
126 139 122 105 141 278 300 207 141 43 20 288 267 249 237 237 237 240 241 227 219 211 207 222 231 237 250 260 262 241 222 217 214 200 189 189 193 196 196 193 199 209 210 210 210 211 218 228 246 265 269 269 269 267 267 267 268 275 289 302 307 307 304 300 298 296 294 293 291 290 290 290 291 293 294 296 297 298 299 300 301 301 302 303 304 304
131 131 155 148 140 243 285 37 62 50 250 255 252 182 203 218 218 224 237 235 220 201 201 223 236 241 242 237 237 238 235 229 215 195 186 189 197 204 210 213 217 219 217 219 220 223 231 241 253 261 263 265 266 267 268 269 272 283 298 307 308 306 302 299 297 296 295 294 293 292 292 293 294 295 296 297 299 300 301 303 304 305 306 307 308 308
142 135 153 132 116 179 192 64 87 235 240 261 328 190 203 207 202 213 239 244 226 212 216 231 241 229 221 225 231 239 241 224 196 186 183 194 210 220 226 230 231 228 224 222 223 229 238 247 256 260 259 261 263 264 266 267 274 289 302 307 307 305 302 300 298 297 296 295 294 294 294 295 297 299 300 302 303 305 306 307 308 309 310 310 309 309
151 144 144 135 129 148 137 146 205 246 284 301 284 240 184 193 188 205 273 264 235 212 206 220 231 226 225 231 235 235 220 185 180 193 196 208 227 235 239 240 235 229 225 220 223 236 250 257 261 260 259 261 264 266 266 269 280 294 303 306 305 304 302 301 300 299 298 297 296 296 299 301 303 304 306 307 308 309 310 310 310 311 311 310 310 309
149 146 138 176 192 160 170 208 242 320 311 286 268 203 164 204 184 157 237 260 248 204 184 196 223 226 220 221 212 189 183 183 211 229 221 221 230 235 241 242 233 224 222 222 232 247 255 257 258 260 263 267 268 268 269 276 288 298 303 303 303 303 303 303 302 302 300 299 301 303 306 308 308 309 310 310 311 311 311 311 312 312 312 311 310 310
155 169 169 189 212 130 139 235 269 287 263 260 260 250 200 197 176 146 174 274 279 203 183 181 197 196 175 174 176 168 168 189 285 260 236 221 223 231 234 232 229 228 232 239 250 256 254 255 260 266 269 270 269 270 276 285 295 300 302 303 304 305 305 305 305 304 303 304 307 310 311 312 312 312 311 311 312 311 312 313 313 313 313 312 312 312
104 131 142 157 197 149 160 221 226 229 247 248 251 263 176 157 148 110 77 288 266 196 185 177 174 182 179 180 178 166 155 180 241 257 242 219 218 240 243 236 233 236 243 252 259 261 262 265 270 271 271 271 271 275 282 291 297 300 301 303 305 306 306 306 305 305 305 308 310 312 313 313 313 312 312 312 313 313 314 315 315 315 314 314 314 313
103 95 146 178 214 210 206 224 228 241 253 240 228 221 181 145 114 89 17 274 238 176 180 182 186 198 200 193 179 163 178 202 231 267 259 231 225 246 247 243 242 242 248 254 258 262 267 271 272 272 272 272 273 278 285 291 296 298 300 303 304 305 305 304 304 305 307 309 312 313 314 313 312 312 312 313 315 316 316 316 316 316 316 315 315 313
110 212 202 208 225 223 217 227 253 263 247 218 193 190 178 118 67 142 225 240 182 171 186 192 198 210 210 199 186 191 224 236 253 274 268 242 241 253 248 245 245 245 249 253 257 263 267 269 272 272 272 272 273 279 286 292 295 297 300 302 303 303 303 303 304 306 309 311 313 313 313 313 312 313 315 316 317 317 317 317 317 317 317 317 316 313
153 162 228 220 226 225 222 230 254 277 248 200 178 181 175 133 110 212 230 239 189 198 210 207 209 218 217 210 208 220 241 254 262 264 254 244 256 264 253 243 239 239 244 248 255 262 266 268 271 271 271 272 276 283 289 293 295 297 300 302 302 302 302 303 305 308 311 313 314 313 313 313 313 315 317 318 318 316 317 318 318 318 319 318 315 313
165 157 213 224 196 163 200 220 223 269 230 175 159 160 185 182 216 237 248 254 236 231 229 219 219 226 226 223 225 234 246 255 256 253 248 249 259 261 251 243 238 238 244 250 257 263 266 268 270 270 271 274 279 285 290 293 295 298 300 300 300 300 301 304 307 310 312 314 314 314 314 313 315 317 318 318 317 317 317 318 319 319 320 318 315 314
179 166 193 223 187 149 184 209 208 251 200 166 164 187 210 209 228 243 237 233 236 239 239 237 241 246 240 235 235 239 244 250 254 256 254 254 258 253 245 241 239 241 248 254 258 262 264 267 269 269 271 275 281 286 290 292 295 297 298 299 299 300 303 306 309 311 313 313 314 313 314 315 316 318 318 318 318 317 318 320 321 320 320 318 316 317
217 191 172 200 200 169 186 215 220 237 204 181 187 205 212 219 232 236 231 238 252 257 258 256 257 258 252 246 244 243 245 251 259 263 261 261 263 255 244 241 242 246 252 255 256 259 263 266 267 268 271 277 281 285 288 291 294 296 297 298 299 301 305 308 310 311 312 313 313 314 314 315 317 318 318 319 318 318 321 323 322 320 320 320 321 323
233 205 141 113 239 214 223 229 219 221 207 194 200 211 219 228 234 233 240 260 271 274 271 264 262 264 260 254 249 247 251 257 263 264 264 266 267 258 245 242 244 247 252 254 256 260 263 264 266 269 273 277 280 284 288 291 294 296 297 298 300 304 307 309 309 311 313 313 313 314 315 316 317 318 319 319 318 320 324 325 322 319 321 325 328 330
261 213 179 195 231 229 233 221 204 204 198 191 200 213 222 228 232 237 255 271 278 280 276 269 268 268 264 258 255 256 263 266 266 265 266 268 267 257 245 244 246 249 252 255 259 262 263 264 267 270 272 276 280 284 288 292 294 296 296 298 302 305 307 308 309 311 312 312 313 315 316 316 317 318 319 319 319 322 326 325 321 320 325 332 335 334
245 187 180 216 222 218 241 241 222 213 206 199 206 220 228 234 242 251 265 274 277 277 275 272 270 266 263 264 265 268 270 270 266 266 267 269 266 255 246 246 249 250 253 257 260 263 265 267 269 271 273 277 280 284 288 292 294 294 295 300 304 305 306 307 309 310 311 312 314 316 315 316 318 319 318 319 321 324 327 327 323 322 330 339 340 336
203 197 188 195 208 228 257 253 239 231 232 231 235 241 246 251 257 264 269 273 273 273 273 271 270 268 268 271 274 274 272 271 271 270 269 268 265 256 248 247 249 251 256 261 265 267 269 270 271 272 275 279 282 285 289 291 291 292 296 301 303 304 305 307 307 309 310 312 314 315 314 316 318 319 318 319 321 325 328 328 326 326 333 344 347 341
196 230 196 152 190 229 227 224 220 216 244 246 248 253 256 258 262 264 267 270 271 272 272 272 273 274 273 274 276 275 272 272 274 272 269 268 265 258 252 249 250 253 259 264 266 268 270 272 273 274 277 281 284 287 290 290 291 294 297 300 301 302 304 305 306 307 309 311 313 313 314 315 318 319 319 320 322 324 325 327 328 330 335 342 347 346
217 229 212 173 211 236 234 230 225 216 227 248 256 262 265 266 266 265 266 269 270 269 272 274 275 276 276 275 277 277 276 277 278 274 270 267 263 257 253 251 253 257 261 264 267 269 272 273 274 276 279 283 286 289 290 291 294 296 298 299 299 300 302 304 304 305 307 310 311 312 314 316 318 319 319 320 323 325 325 325 326 333 340 343 344 344